Wind_Speed
24 26 28 26 24 25 28 31 31 31 32 30 31 30 27 20 16 11 23 45 35 41 43 44 46 46 47 48 44 41 45 44 41 34 34 30 32 33 34 30 30 29 27
24 26 28 27 28 30 32 32 32 33 34 34 33 32 31 31 27 25 20 28 40 44 45 47 47 49 48 49 51 45 46 46 42 43 37 32 30 34 40 36 33 31 29
20 22 23 25 24 29 34 34 34 33 33 35 36 34 31 28 29 32 34 28 25 33 38 48 50 51 49 49 51 48 45 44 44 51 35 16 22 36 35 39 36 33 34
17 20 22 23 26 29 31 34 34 33 33 33 35 36 37 38 33 34 35 39 36 32 28 38 51 51 47 47 47 44 49 45 44 45 45 40 19 18 17 32 35 37 37
16 15 15 18 21 27 30 34 37 40 38 34 33 34 35 37 36 34 37 40 44 44 37 29 39 47 50 45 44 44 42 48 46 50 44 48 32 21 15 19 35 41 44
10 11 15 20 25 30 30 37 37 37 36 38 36 32 33 35 38 36 36 38 39 46 48 40 30 45 49 46 46 42 42 43 44 48 46 42 39 36 28 32 31 34 39
9 12 14 22 28 32 32 40 41 38 35 34 35 35 32 32 33 32 31 32 37 40 43 49 38 33 44 46 44 40 39 40 39 43 45 46 42 26 27 39 37 33 37
10 12 16 21 27 32 35 39 39 38 34 32 33 33 31 30 32 32 28 27 26 30 37 39 46 36 38 43 40 41 39 40 40 40 40 36 25 17 23 37 34 31 36
15 17 18 21 25 27 34 37 37 35 33 31 31 31 30 30 29 30 28 24 24 26 27 23 36 39 37 40 39 38 38 40 40 40 38 34 30 30 43 40 38 35 29
15 14 16 19 21 29 34 34 35 35 35 32 30 30 30 30 29 28 26 25 22 25 20 14 12 26 33 36 38 37 36 36 31 31 33 39 38 33 34 38 34 39 39
13 13 15 19 26 30 33 35 35 37 34 32 31 29 28 31 28 27 24 23 20 21 22 13 9 14 20 27 29 27 29 27 24 28 38 38 37 39 32 35 34 37 33
16 17 19 24 29 30 29 32 33 37 33 32 32 30 28 28 29 27 24 22 19 19 16 12 24 12 13 34 24 18 24 23 26 32 35 27 27 30 30 32 34 35 34
15 18 21 24 24 26 27 28 31 33 32 36 34 33 29 27 32 27 25 23 21 18 11 12 25 17 10 14 20 28 23 26 26 26 25 25 29 30 35 37 36 33 32
13 15 17 18 21 24 27 28 33 30 29 34 34 32 31 27 28 29 29 24 21 17 15 8 15 20 17 21 6 10 12 13 14 16 16 18 16 20 22 18 22 27 27
13 16 18 20 23 26 25 30 32 28 27 34 34 28 32 31 26 27 27 28 23 21 19 12 8 18 19 24 11 5 3 6 10 13 18 21 19 20 20 22 29 24 20
14 16 18 20 23 24 25 29 31 26 28 34 33 28 29 31 32 32 26 27 24 25 21 20 16 17 22 22 19 11 4 4 5 9 13 17 25 30 34 34 30 22 23
13 15 17 20 22 22 23 27 29 24 29 35 32 29 28 29 28 28 27 27 25 23 21 23 19 18 19 20 21 14 6 5 8 9 11 12 14 18 22 24 26 30 31
13 15 16 20 21 20 23 25 26 22 30 35 31 29 28 27 26 28 24 24 25 24 22 18 18 14 17 22 22 15 9 5 8 10 10 10 12 15 18 19 19 22 22
13 14 17 17 18 22 22 24 25 25 31 34 30 28 27 27 27 27 24 25 25 22 20 18 15 16 17 22 23 20 14 10 11 10 9 11 13 16 17 20 21 19 19
13 14 13 16 18 19 21 25 23 28 32 33 29 25 26 26 26 26 25 25 26 25 22 19 19 19 18 17 22 24 21 17 14 12 13 13 15 17 17 20 22 22 20
9 11 15 16 17 19 21 21 23 27 31 30 25 22 24 24 24 24 24 23 25 27 25 23 24 23 23 21 23 25 22 22 20 18 18 16 16 18 19 18 20 22 24
12 14 16 15 16 19 21 21 24 28 29 25 24 21 23 23 24 24 23 22 25 30 29 28 30 29 28 28 28 26 24 23 21 20 20 20 19 18 18 20 18 20 23
14 17 17 15 15 17 18 21 25 27 25 24 23 23 24 24 24 26 25 25 26 30 31 30 33 33 33 31 27 27 26 23 23 21 22 20 18 16 16 17 16 17 20
15 16 17 16 16 17 18 19 22 24 23 26 23 23 26 27 23 25 24 25 26 28 29 30 33 34 35 33 33 33 30 24 23 23 20 19 19 16 16 18 17 16 18
15 16 17 16 16 19 17 19 23 23 24 23 21 23 26 27 24 26 24 23 21 21 23 25 29 33 33 30 27 29 29 24 21 21 22 22 21 24 23 21 20 18 18
15 16 16 14 19 19 19 20 21 21 24 22 21 24 25 23 23 26 25 20 19 18 18 20 23 29 23 24 25 25 22 18 18 18 20 22 25 27 27 26 25 23 21
Wind_Direction
43 28 22 12 8 8 2 359 352 347 341 336 323 312 307 287 297 294 275 240 258 258 251 246 246 245 237 230 232 236 233 229 232 226 229 232 234 229 232 246 238 238 242
35 24 18 15 4 357 358 359 356 352 349 342 338 327 319 308 286 285 267 252 252 259 254 250 249 244 243 239 232 234 237 231 234 228 220 217 222 229 231 234 232 232 241
38 28 18 11 357 351 349 349 350 352 347 343 338 328 321 307 291 268 266 260 255 257 256 253 250 247 243 241 240 238 239 239 232 232 223 217 219 226 224 224 227 229 236
39 27 6 352 344 344 343 344 346 347 347 346 340 336 331 325 314 305 284 267 262 268 274 257 250 252 249 248 245 244 243 242 242 238 236 229 230 203 207 221 228 234 234
40 32 359 339 339 344 349 348 346 344 345 346 344 337 329 322 316 311 302 288 271 263 269 270 259 251 255 249 250 244 251 249 246 239 235 236 226 214 207 218 236 235 238
27 4 340 332 343 343 344 345 344 341 339 338 341 339 330 324 319 318 313 306 294 273 265 271 271 254 255 256 252 251 250 250 248 249 244 236 227 226 223 245 242 244 245
21 352 338 339 342 341 342 341 340 340 337 337 338 338 332 324 321 317 317 314 305 295 275 269 265 265 253 253 252 251 254 255 255 253 249 248 247 235 251 242 244 245 247
4 11 354 343 340 341 338 339 340 339 338 338 337 337 336 327 320 320 310 314 318 306 287 284 270 261 253 252 252 252 252 252 251 249 249 232 214 268 270 265 256 249 245
10 357 341 342 341 338 338 339 341 342 341 342 339 337 335 331 322 317 309 308 321 325 276 305 276 261 252 253 252 250 252 252 251 246 234 229 243 257 262 247 252 250 252
360 352 345 342 342 341 341 341 345 347 346 343 341 339 337 335 328 321 319 305 314 334 302 322 274 260 256 254 252 249 251 246 236 233 236 239 255 244 262 248 249 253 247
7 4 358 351 346 341 341 344 344 347 346 348 346 345 338 341 336 329 325 322 322 326 326 319 337 246 251 253 248 247 234 222 220 230 242 251 258 260 261 250 251 248 249
358 356 353 346 342 343 344 346 343 345 350 351 349 350 342 343 344 342 336 335 336 340 330 346 14 51 78 216 215 214 233 225 234 235 258 258 252 254 254 253 248 245 254
353 352 349 349 346 346 345 347 342 350 353 353 349 353 351 349 351 351 349 344 343 1 344 332 23 23 18 100 156 195 206 211 223 231 242 248 254 257 256 255 255 255 257
356 356 351 348 345 343 343 344 344 355 348 351 353 353 360 354 351 354 355 356 359 2 8 350 1 9 356 13 85 147 152 176 193 213 220 233 238 246 259 259 258 257 265
7 360 352 347 342 345 345 343 349 353 346 348 354 360 354 357 1 359 360 3 2 11 11 17 356 356 352 342 346 3 283 236 242 243 233 236 241 237 245 252 256 259 264
359 350 346 342 343 346 342 343 350 352 339 346 353 358 358 357 0 359 1 4 5 8 12 14 11 352 346 335 351 348 347 300 272 249 236 239 242 246 250 249 250 259 256
354 346 342 340 343 346 342 343 348 341 338 345 350 356 353 356 358 354 356 357 358 354 4 7 20 21 346 342 336 10 339 295 287 281 266 260 259 260 258 255 254 249 251
351 347 340 340 342 339 340 341 349 336 339 345 351 352 353 355 356 352 358 357 356 1 2 11 24 11 349 346 348 3 352 311 288 288 289 286 284 279 276 274 268 262 253
337 338 338 339 340 338 338 338 345 337 340 347 350 354 359 358 355 2 5 5 2 5 7 11 8 359 360 356 353 360 355 343 326 316 313 299 289 285 289 291 287 276 269
346 341 342 343 346 344 337 339 341 336 343 346 349 360 0 359 358 5 6 6 7 7 6 8 11 6 3 359 349 354 355 350 338 333 322 309 299 294 291 294 294 288 286
356 340 339 349 349 339 336 345 337 340 341 342 350 1 359 0 360 2 6 6 360 4 10 14 10 9 4 6 356 359 1 353 346 339 328 322 315 307 302 299 295 292 286
347 338 338 344 336 331 333 340 335 336 336 345 354 1 359 2 0 2 2 5 1 1 6 7 2 5 6 3 358 359 1 354 351 346 338 330 321 313 309 302 296 291 291
332 328 332 330 330 333 337 333 335 335 344 353 0 4 3 1 3 5 6 6 5 360 4 360 356 358 359 358 1 1 358 359 358 354 352 346 335 331 321 311 300 290 291
332 332 335 341 343 340 339 335 338 346 354 357 2 3 4 1 5 8 6 7 3 0 0 355 353 351 353 358 359 355 354 358 355 353 349 346 349 345 332 318 303 305 302
337 345 347 351 350 347 353 354 349 357 356 358 3 5 359 358 2 4 4 3 2 360 355 353 350 349 353 359 352 350 352 353 348 347 348 350 347 341 339 333 328 317 308
350 352 357 358 360 1 3 352 355 358 354 357 2 3 351 358 2 354 354 7 5 3 1 353 350 351 359 355 354 354 356 352 351 351 360 2 356 351 347 341 334 329 323
Height
1522 1522 1519 1518 1520 1519 1517 1513 1507 1502 1497 1492 1487 1484 1482 1483 1482 1478 1480 1482 1484 1487 1486 1484 1483 1484 1484 1485 1484 1483 1485 1490 1494 1497 1498 1501 1502 1503 1504 1506 1509 1510 1512
1518 1518 1519 1522 1519 1517 1515 1514 1508 1503 1497 1493 1489 1484 1480 1477 1477 1475 1476 1473 1474 1478 1477 1473 1472 1476 1472 1474 1474 1475 1477 1481 1488 1488 1488 1492 1494 1495 1495 1498 1500 1503 1505
1521 1520 1523 1521 1520 1517 1513 1511 1507 1502 1499 1491 1484 1479 1476 1474 1469 1468 1466 1465 1463 1461 1461 1461 1463 1461 1461 1460 1463 1469 1471 1472 1473 1480 1480 1483 1483 1484 1487 1490 1493 1495 1497
1523 1523 1521 1521 1520 1517 1515 1510 1505 1500 1497 1492 1483 1476 1467 1462 1462 1460 1457 1456 1455 1451 1451 1451 1451 1448 1450 1452 1454 1456 1462 1464 1466 1471 1474 1473 1475 1476 1480 1487 1491 1489 1489
1524 1524 1526 1523 1521 1516 1511 1509 1503 1498 1493 1489 1482 1474 1466 1461 1456 1454 1450 1447 1444 1442 1442 1442 1441 1440 1437 1441 1446 1447 1452 1456 1459 1460 1463 1466 1470 1469 1472 1476 1482 1482 1482
1525 1525 1524 1521 1518 1513 1512 1507 1502 1498 1492 1485 1479 1474 1467 1460 1451 1443 1439 1436 1433 1429 1428 1429 1429 1429 1428 1430 1434 1440 1442 1447 1449 1453 1453 1453 1458 1461 1460 1470 1471 1474 1473
1527 1526 1521 1517 1514 1513 1510 1505 1500 1496 1491 1484 1477 1471 1464 1458 1452 1443 1436 1431 1425 1420 1415 1413 1417 1418 1421 1423 1428 1432 1434 1436 1441 1443 1445 1448 1453 1452 1457 1464 1464 1462 1464
1526 1522 1518 1516 1514 1510 1507 1503 1497 1492 1487 1480 1473 1467 1462 1455 1448 1441 1436 1430 1424 1418 1412 1406 1406 1409 1413 1415 1419 1421 1424 1429 1430 1431 1434 1437 1442 1451 1453 1459 1460 1457 1457
1521 1519 1517 1514 1512 1509 1505 1500 1495 1490 1484 1477 1470 1463 1458 1450 1443 1437 1433 1427 1420 1415 1409 1403 1397 1400 1403 1405 1410 1413 1417 1420 1422 1423 1428 1431 1433 1434 1443 1445 1450 1451 1451
1521 1520 1518 1515 1512 1507 1501 1496 1492 1487 1480 1474 1467 1459 1454 1446 1440 1435 1428 1422 1416 1410 1403 1395 1391 1391 1392 1396 1400 1403 1406 1410 1414 1417 1420 1423 1427 1431 1434 1435 1438 1442 1444
1523 1521 1518 1514 1509 1504 1498 1494 1489 1484 1477 1471 1463 1457 1451 1443 1437 1431 1425 1419 1411 1406 1402 1392 1389 1385 1387 1389 1392 1396 1400 1403 1408 1412 1413 1412 1417 1420 1421 1426 1430 1434 1436
1521 1518 1515 1510 1505 1501 1497 1493 1488 1482 1475 1469 1462 1455 1449 1442 1436 1429 1422 1416 1410 1404 1400 1392 1388 1378 1379 1380 1385 1391 1395 1398 1402 1402 1408 1405 1410 1414 1417 1419 1423 1425 1427
1520 1516 1512 1509 1505 1501 1497 1493 1487 1480 1474 1467 1460 1453 1446 1440 1434 1427 1420 1415 1408 1401 1397 1394 1386 1381 1384 1374 1378 1384 1387 1392 1396 1398 1400 1400 1405 1408 1412 1413 1414 1416 1418
1519 1516 1513 1510 1505 1501 1496 1491 1486 1479 1474 1467 1459 1452 1446 1440 1434 1426 1419 1414 1408 1403 1399 1393 1387 1385 1387 1372 1374 1373 1375 1381 1387 1391 1394 1397 1399 1400 1402 1405 1407 1408 1408
1516 1513 1510 1506 1502 1498 1494 1489 1484 1479 1473 1466 1459 1453 1446 1440 1433 1427 1420 1414 1408 1404 1399 1393 1389 1388 1380 1372 1371 1372 1373 1378 1383 1385 1387 1391 1392 1395 1396 1397 1399 1399 1401
1513 1511 1509 1505 1501 1497 1492 1487 1483 1478 1472 1465 1458 1451 1446 1439 1431 1425 1419 1414 1408 1404 1401 1393 1386 1379 1382 1382 1372 1375 1372 1377 1378 1381 1381 1384 1385 1387 1388 1392 1393 1394 1396
1512 1510 1507 1504 1500 1496 1491 1486 1482 1476 1470 1464 1457 1451 1445 1438 1431 1426 1420 1412 1408 1404 1398 1394 1390 1384 1387 1379 1386 1373 1377 1374 1378 1380 1380 1379 1378 1380 1382 1382 1384 1387 1389
1511 1509 1505 1502 1498 1494 1490 1485 1481 1474 1469 1463 1457 1451 1444 1438 1433 1427 1421 1416 1411 1403 1399 1397 1395 1391 1392 1387 1378 1378 1380 1380 1380 1379 1377 1374 1374 1375 1374 1375 1375 1378 1381
1509 1507 1503 1500 1496 1492 1488 1483 1479 1473 1469 1463 1457 1451 1445 1438 1433 1427 1422 1418 1412 1406 1401 1398 1395 1393 1391 1384 1378 1378 1379 1374 1376 1376 1372 1371 1371 1369 1366 1365 1367 1370 1373
1507 1504 1501 1498 1495 1490 1485 1481 1477 1472 1467 1462 1456 1451 1446 1440 1434 1429 1423 1419 1414 1409 1403 1398 1394 1392 1388 1386 1382 1384 1376 1373 1371 1367 1366 1367 1365 1365 1364 1362 1361 1361 1362
1504 1501 1498 1495 1492 1487 1483 1480 1475 1471 1467 1461 1456 1451 1447 1442 1436 1430 1424 1419 1416 1411 1405 1400 1398 1393 1391 1385 1383 1378 1372 1370 1365 1364 1365 1363 1360 1358 1358 1357 1356 1355 1354
1500 1498 1495 1493 1489 1485 1482 1479 1474 1470 1465 1460 1454 1450 1446 1442 1437 1431 1426 1421 1415 1409 1402 1399 1396 1393 1387 1382 1378 1372 1372 1372 1367 1363 1361 1359 1357 1356 1352 1352 1352 1350 1349
1498 1496 1493 1491 1488 1485 1481 1477 1473 1468 1463 1458 1454 1449 1445 1440 1435 1430 1425 1419 1414 1409 1403 1400 1396 1391 1387 1385 1381 1379 1374 1368 1363 1360 1359 1358 1354 1351 1350 1348 1345 1344 1343
1497 1494 1491 1489 1487 1483 1480 1477 1472 1467 1462 1457 1452 1448 1443 1440 1435 1430 1426 1421 1416 1411 1407 1404 1399 1392 1386 1381 1377 1373 1368 1363 1361 1359 1358 1356 1352 1350 1347 1343 1342 1341 1338
1495 1493 1490 1488 1485 1481 1478 1475 1470 1466 1461 1457 1453 1448 1443 1439 1434 1430 1426 1422 1419 1416 1411 1406 1400 1394 1388 1386 1383 1375 1368 1364 1362 1358 1354 1350 1347 1343 1340 1339 1337 1336 1333
1493 1491 1488 1486 1483 1480 1477 1474 1469 1465 1461 1456 1452 1448 1444 1440 1435 1431 1426 1424 1421 1417 1412 1408 1402 1396 1391 1387 1382 1377 1372 1366 1362 1357 1353 1351 1346 1341 1337 1334 1332 1330 1326